Saginaw, MI

7:53 PM EDT on September 24, 2016 (GMT -0400)
Saginaw County-Browne

Weather History for KHYX - October, 2012

Change the Weather History Date:

Friday, October 19, 2012

  Actual Average (KMBS) Record (KMBS)
Temperature  
Mean Temperature 48 °F 49 °F  
Max Temperature 53 °F 58 °F 69 °F (2015)
Min Temperature 44 °F 39 °F 0 °F (2004)
Degree Days  
Heating Degree Days 16    
Month to date heating degree days  
Since 1 July heating degree days  
Cooling Degree Days 0    
Month to date cooling degree days  
Year to date cooling degree days  
Moisture  
Dew Point 43 °F    
Average Humidity 78    
Maximum Humidity 100    
Minimum Humidity 62    
Precipitation  
Precipitation 0.00 in 0.08 in 1.19 in (2011)
Month to date precipitation 1.65  
Year to date precipitation 26.00  
Snow  
Snow 0.00 in - - ()
Month to date snowfall  
Since 1 July snowfall  
Since 1 September snowfall  
Snow Depth -    
Sea Level Pressure  
Sea Level Pressure 29.58 in    
Wind  
Wind Speed 5 mph (SSE)    
Max Wind Speed 16 mph    
Max Gust Speed 25 mph    
Visibility 10 miles    
Events Rain    
T = Trace of Precipitation, MM = Missing Value Source: NWS Daily Summary

Daily Weather History Graph

Daily Weather History Graph

Search for Another Location

Airport or City:

Trip Planner

Search our weather history database for the weather conditions in past years. The results will help you decide how hot, cold, wet, or windy it might be!

Date:

Astronomy

Oct. 19, 2012 Rise Set
Actual Time 7:54 AM EDT 6:44 PM EDT
Civil Twilight 7:25 AM EDT 7:13 PM EDT
Nautical Twilight 6:52 AM EDT 7:47 PM EDT
Astronomical Twilight 6:19 AM EDT 8:20 PM EDT
Moon 12:43 PM EDT (10/19) 10:16 PM EDT (10/19)
Length of Visible Light 11h 48m
Length of Day
10h 50m
Waxing Crescent, 23% of the Moon is Illuminated
Oct 19
Waxing Crescent
Oct 21
First Quarter
Oct 29
Full
Nov 6
Last Quarter
Nov 13
New

Hourly Weather History & Observations

Time (EDT) Temp. Windchill Dew Point Humidity Pressure Visibility Wind Dir Wind Speed Gust Speed Precip Events Conditions
12:10 AM 48.2 °F - 37.4 °F 66% 29.64 in 10.0 mi Calm Calm - N/A   Mostly Cloudy
12:30 AM 48.2 °F - 37.4 °F 66% 29.63 in 10.0 mi Calm Calm - N/A   Mostly Cloudy
12:50 AM 46.4 °F - 39.2 °F 76% 29.62 in 10.0 mi Calm Calm - N/A   Overcast
1:10 AM 46.4 °F 44.3 °F 41.0 °F 81% 29.63 in 10.0 mi SE 4.6 mph - N/A   Overcast
1:30 AM 46.4 °F 45.2 °F 41.0 °F 81% 29.62 in 10.0 mi ESE 3.5 mph - N/A   Overcast
1:50 AM 44.6 °F - 41.0 °F 87% 29.63 in 10.0 mi Calm Calm - N/A   Overcast
2:10 AM 44.6 °F 41.4 °F 41.0 °F 87% 29.61 in 10.0 mi ESE 5.8 mph - N/A   Mostly Cloudy
2:30 AM 46.4 °F 44.3 °F 39.2 °F 76% 29.61 in 10.0 mi East 4.6 mph - N/A   Scattered Clouds
2:51 AM 46.4 °F 43.5 °F 41.0 °F 81% 29.61 in 10.0 mi East 5.8 mph - N/A   Mostly Cloudy
3:11 AM 46.4 °F 42.9 °F 39.2 °F 76% 29.60 in 10.0 mi East 6.9 mph - N/A   Overcast
3:31 AM 44.6 °F 42.2 °F 39.2 °F 81% 29.59 in 10.0 mi East 4.6 mph - N/A   Mostly Cloudy
3:51 AM 46.4 °F 44.3 °F 39.2 °F 76% 29.60 in 10.0 mi SE 4.6 mph - N/A   Mostly Cloudy
4:11 AM 44.6 °F - 41.0 °F 87% 29.61 in 10.0 mi Calm Calm - N/A   Overcast
4:31 AM 44.6 °F - 41.0 °F 87% 29.60 in 10.0 mi Calm Calm - N/A   Overcast
4:51 AM 46.4 °F - 41.0 °F 81% 29.60 in 10.0 mi Calm Calm - N/A   Overcast
5:11 AM 46.4 °F - 39.2 °F 76% 29.59 in 10.0 mi Calm Calm - N/A   Overcast
5:31 AM 44.6 °F - 41.0 °F 87% 29.60 in 10.0 mi Calm Calm - N/A   Overcast
5:51 AM 46.4 °F - 41.0 °F 81% 29.60 in 10.0 mi Calm Calm - N/A   Overcast
6:12 AM 44.6 °F - 41.0 °F 87% 29.60 in 10.0 mi Calm Calm - N/A   Overcast
6:32 AM 44.6 °F 43.1 °F 41.0 °F 87% 29.59 in 10.0 mi East 3.5 mph - N/A   Overcast
6:52 AM 46.4 °F 44.3 °F 41.0 °F 81% 29.59 in 10.0 mi ESE 4.6 mph - N/A   Overcast
7:12 AM 46.4 °F 44.3 °F 41.0 °F 81% 29.59 in 10.0 mi ESE 4.6 mph - N/A   Overcast
7:32 AM 46.4 °F 44.3 °F 42.8 °F 87% 29.59 in 10.0 mi ESE 4.6 mph - N/A   Overcast
7:52 AM 48.2 °F - 42.8 °F 82% 29.58 in 10.0 mi ESE 4.6 mph - N/A   Overcast
8:12 AM 48.2 °F - 44.6 °F 87% 29.58 in 10.0 mi ESE 12.7 mph - N/A   Overcast
8:32 AM 50.0 °F - 44.6 °F 82% 29.58 in 10.0 mi ESE 10.4 mph - N/A   Light Drizzle
8:52 AM 50.0 °F - 44.6 °F 82% 29.58 in 10.0 mi SE 11.5 mph - N/A Rain Light Rain
9:13 AM 50.0 °F - 46.4 °F 87% 29.58 in 10.0 mi ESE 13.8 mph - N/A   Overcast
9:33 AM 50.0 °F - 44.6 °F 82% 29.58 in 10.0 mi ESE 12.7 mph - N/A   Overcast
9:53 AM 51.8 °F - 46.4 °F 82% 29.58 in 10.0 mi ESE 12.7 mph 17.3 mph N/A   Overcast
10:13 AM 51.8 °F - 44.6 °F 76% 29.58 in 10.0 mi SE 13.8 mph 18.4 mph N/A   Overcast
10:33 AM 51.8 °F - 44.6 °F 76% 29.58 in 10.0 mi SE 13.8 mph - N/A   Overcast
10:53 AM 51.8 °F - 44.6 °F 76% 29.58 in 10.0 mi SSE 11.5 mph - N/A Rain Light Rain
11:13 AM 51.8 °F - 44.6 °F 76% 29.58 in 10.0 mi South 10.4 mph - N/A   Drizzle
11:33 AM 51.8 °F - 42.8 °F 71% 29.57 in 10.0 mi SSE 12.7 mph - N/A   Overcast
11:54 AM 51.8 °F - 42.8 °F 71% 29.56 in 10.0 mi SSE 15.0 mph 19.6 mph N/A   Light Drizzle
12:14 PM 51.8 °F - 42.8 °F 71% 29.56 in 10.0 mi SSE 13.8 mph 19.6 mph N/A   Light Drizzle
12:34 PM 53.6 °F - 42.8 °F 67% 29.56 in 10.0 mi SSE 13.8 mph - N/A   Overcast
12:54 PM 53.6 °F - 41.0 °F 62% 29.55 in 10.0 mi South 11.5 mph 21.9 mph N/A   Overcast
1:14 PM 51.8 °F - 42.8 °F 71% 29.55 in 10.0 mi South 13.8 mph - N/A   Drizzle
1:34 PM 50.0 °F - 44.6 °F 82% 29.55 in 10.0 mi South 11.5 mph - N/A   Overcast
1:54 PM 53.6 °F - 44.6 °F 72% 29.54 in 10.0 mi South 12.7 mph - N/A   Overcast
2:09 PM 53.6 °F - 44.6 °F 72% 29.54 in 10.0 mi SSE 16.1 mph 25.3 mph N/A   Overcast
2:29 PM 53.6 °F - 42.8 °F 67% 29.54 in 10.0 mi SSE 12.7 mph - N/A   Overcast
2:50 PM 53.6 °F - 42.8 °F 67% 29.54 in 10.0 mi South 13.8 mph - N/A   Overcast
3:10 PM 53.6 °F - 41.0 °F 62% 29.53 in 10.0 mi South 8.1 mph 12.7 mph N/A   Overcast
3:30 PM 53.6 °F - 41.0 °F 62% 29.54 in 10.0 mi South 11.5 mph 17.3 mph N/A   Overcast
3:50 PM 53.6 °F - 41.0 °F 62% 29.54 in 10.0 mi South 8.1 mph - N/A   Overcast
4:10 PM 53.6 °F - 41.0 °F 62% 29.54 in 10.0 mi South 8.1 mph - N/A   Overcast
4:30 PM 53.6 °F - 41.0 °F 62% 29.54 in 10.0 mi SSE 8.1 mph - N/A   Overcast
4:50 PM 53.6 °F - 41.0 °F 62% 29.54 in 10.0 mi South 6.9 mph - N/A   Overcast
5:10 PM 53.6 °F - 41.0 °F 62% 29.54 in 10.0 mi South 6.9 mph - N/A   Overcast
5:31 PM 53.6 °F - 42.8 °F 67% 29.54 in 10.0 mi South 5.8 mph - N/A   Overcast
5:51 PM 53.6 °F - 42.8 °F 67% 29.55 in 10.0 mi South 4.6 mph - N/A   Overcast
6:11 PM 53.6 °F - 42.8 °F 67% 29.55 in 10.0 mi SSE 3.5 mph - N/A   Mostly Cloudy
6:31 PM 51.8 °F - 42.8 °F 71% 29.56 in 10.0 mi SSE 3.5 mph - N/A   Mostly Cloudy
6:51 PM 51.8 °F - 42.8 °F 71% 29.56 in 10.0 mi East 4.6 mph - N/A   Mostly Cloudy
7:11 PM 50.0 °F - 42.8 °F 76% 29.56 in 10.0 mi Calm Calm - N/A   Mostly Cloudy
7:31 PM 51.8 °F - 42.8 °F 71% 29.56 in 10.0 mi Calm Calm - N/A   Overcast
7:51 PM 51.8 °F - 42.8 °F 71% 29.56 in 10.0 mi SE 3.5 mph - N/A   Overcast
8:11 PM 50.0 °F - 42.8 °F 76% 29.56 in 10.0 mi ESE 3.5 mph - N/A   Overcast
8:32 PM 50.0 °F - 42.8 °F 76% 29.57 in 10.0 mi SW 13.8 mph - N/A Rain Rain
8:52 PM 48.2 °F - 44.6 °F 87% 29.58 in 10.0 mi SW 10.4 mph - N/A   Drizzle
9:12 PM 46.4 °F 42.4 °F 44.6 °F 93% 29.58 in 10.0 mi SW 8.1 mph - N/A   Drizzle
9:32 PM 46.4 °F 43.5 °F 46.4 °F 100% 29.58 in 10.0 mi SW 5.8 mph - N/A   Overcast
9:52 PM 46.4 °F 44.3 °F 46.4 °F 100% 29.58 in 10.0 mi SW 4.6 mph - N/A   Drizzle
10:12 PM 46.4 °F 44.3 °F 46.4 °F 100% 29.58 in 7.0 mi SSW 4.6 mph - N/A   Light Drizzle
10:32 PM 46.4 °F - 46.4 °F 100% 29.57 in 10.0 mi Calm Calm - N/A   Drizzle
10:52 PM 46.4 °F - 46.4 °F 100% 29.57 in 10.0 mi Calm Calm - N/A   Light Drizzle
11:12 PM 46.4 °F - 46.4 °F 100% 29.57 in 7.0 mi Calm Calm - N/A   Drizzle
11:33 PM 46.4 °F - 46.4 °F 100% 29.57 in 7.0 mi Calm Calm - N/A   Drizzle
11:53 PM 46.4 °F - 46.4 °F 100% 29.57 in 7.0 mi Calm Calm - N/A Rain Rain